Location: Chateh
(58.6667°N, 118.6000°W)
Time: 09:33:30
(UTC+00:00)

PCSat - Pass Details

Date: 13 December 2023
Orbit: 784 x 791 km, 67.0° (Epoch: 01 March)

Event Time Altitude Azimuth Distance (km) Brightness Sun altitude
Exits shadow 13:27:22 39° 327° (NNW) 1,181 10.1 -22.3°
Maximum altitude 13:27:55 40° 343° (NNW) 1,159 10.2 -22.3°
Drops below altitude 10° 13:33:01 10° 52° (NE) 2,366 12.6 -21.6°
Sets 13:35:36 0° 60° (ENE) 3,297 13.6 -21.3°
